Location: Deuil
(48.9767°N, 2.3272°E)
Time: 21:05:02
(UTC+00:00)

N. Korean satellite - Visible Passes

Search period start: 30 March 2023 00:00
Search period end: 09 April 2023 00:00
Orbit: 390 x 416 km, 97.3° (Epoch: 29 March)

Date Brightness Start Highest point End Pass type
(mag) Time Alt. Az. Time Alt. Az. Time Alt. Az.
30 Mar 8.5 04:54:47 10° NE 04:57:33 28° E 05:00:17 10° SSE visible
01 Apr 9.0 04:47:54 10° NE 04:50:27 23° E 04:52:59 10° SSE visible
03 Apr 9.3 04:40:29 10° NE 04:42:46 19° E 04:45:01 10° SE visible
05 Apr 9.4 04:32:36 10° NE 04:34:28 15° E 04:36:18 10° SE visible
07 Apr 9.7 04:24:25 10° ENE 04:25:33 12° E 04:26:43 10° ESE visible
